TimeEST,TemperatureF,Dew PointF,Humidity,Sea Level PressureIn,VisibilityMPH,Wind Direction,Wind SpeedMPH,Gust SpeedMPH,PrecipitationIn,Events,Conditions,WindDirDegrees,DateUTC
12:53 AM,32.0,28.0,85,30.15,10.0,NNW,5.8,-,N/A,,Clear,340,2012-11-06 05:53:00
1:53 AM,33.1,28.0,82,30.16,10.0,NNW,4.6,-,N/A,,Clear,330,2012-11-06 06:53:00
2:53 AM,32.0,28.0,85,30.15,10.0,NNW,5.8,-,N/A,,Clear,340,2012-11-06 07:53:00
3:53 AM,32.0,27.0,82,30.14,10.0,North,5.8,-,N/A,,Clear,350,2012-11-06 08:53:00
4:53 AM,34.0,27.0,75,30.14,10.0,North,6.9,-,N/A,,Clear,350,2012-11-06 09:53:00
5:53 AM,34.0,27.0,75,30.15,10.0,NNW,6.9,-,N/A,,Clear,340,2012-11-06 10:53:00
6:53 AM,34.0,28.0,79,30.16,10.0,NNW,6.9,-,N/A,,Partly Cloudy,330,2012-11-06 11:53:00
7:53 AM,36.0,28.9,76,30.16,10.0,North,9.2,-,N/A,,Clear,350,2012-11-06 12:53:00
8:53 AM,39.0,32.0,76,30.17,10.0,NNW,8.1,-,N/A,,Clear,340,2012-11-06 13:53:00
9:53 AM,45.0,35.1,68,30.16,10.0,North,11.5,-,N/A,,Clear,360,2012-11-06 14:53:00
10:53 AM,48.0,37.0,66,30.16,10.0,North,9.2,-,N/A,,Scattered Clouds,350,2012-11-06 15:53:00
11:53 AM,50.0,37.9,63,30.13,10.0,Variable,6.9,-,N/A,,Overcast,0,2012-11-06 16:53:00
12:53 PM,48.9,36.0,61,30.09,10.0,ENE,13.8,19.6,N/A,,Mostly Cloudy,60,2012-11-06 17:53:00
1:53 PM,48.9,36.0,61,30.08,10.0,NE,10.4,-,N/A,,Mostly Cloudy,50,2012-11-06 18:53:00
2:53 PM,48.9,37.9,66,30.05,10.0,NE,11.5,-,N/A,,Overcast,40,2012-11-06 19:53:00
3:53 PM,48.9,39.0,69,30.06,10.0,NE,11.5,-,N/A,,Overcast,50,2012-11-06 20:53:00
4:53 PM,48.9,39.9,71,30.04,10.0,NE,11.5,-,N/A,,Mostly Cloudy,50,2012-11-06 21:53:00
5:53 PM,48.9,39.9,71,30.02,10.0,NE,15.0,-,N/A,,Overcast,50,2012-11-06 22:53:00
6:26 PM,48.2,41.0,76,30.01,10.0,NE,12.7,23.0,N/A,,Overcast,50,2012-11-06 23:26:00
6:42 PM,48.2,41.0,76,30.00,10.0,NE,13.8,21.9,N/A,,Overcast,50,2012-11-06 23:42:00
6:53 PM,48.9,41.0,74,29.99,10.0,NE,17.3,23.0,N/A,,Overcast,50,2012-11-06 23:53:00
7:02 PM,48.2,41.0,76,29.98,10.0,NE,12.7,25.3,N/A,,Overcast,50,2012-11-07 00:02:00
7:53 PM,48.9,41.0,74,30.01,10.0,NE,16.1,25.3,N/A,,Overcast,50,2012-11-07 00:53:00
8:53 PM,48.9,42.1,77,29.99,10.0,NE,15.0,23.0,N/A,,Overcast,40,2012-11-07 01:53:00
9:53 PM,48.9,42.1,77,29.96,10.0,NE,15.0,26.5,N/A,,Overcast,40,2012-11-07 02:53:00
10:53 PM,48.9,42.1,77,29.94,10.0,NE,16.1,24.2,N/A,,Overcast,40,2012-11-07 03:53:00
11:53 PM,46.9,41.0,80,29.90,10.0,North,16.1,24.2,N/A,,Overcast,10,2012-11-07 04:53:00